EW0121 Weather Reports


time (UTC)temp
C
wind
direction
speed
KPH
gust
KPH
rain 1hr
cm
rain 24hr
cm
rain mn
cm
humidity
%
barometer
mb
20260510163031 13 61 3.2 12.9 0.00 0.00 0.00 58 1015.9
20260510161527 14 19 3.2 17.7 0.00 0.00 0.00 55 1016.1
20260510160026 13 61 3.2 9.7 0.00 0.00 0.00 58 1016.2
20260510154529 15 5 3.2 9.7 0.00 0.00 0.00 54 1016.3
20260510153024 15 30 3.2 16.1 0.00 0.00 0.00 56 1016.4
20260510151524 14 352 4.8 16.1 0.00 0.00 0.00 57 1016.5
20260510150035 13 17 3.2 11.3 0.00 0.00 0.00 61 1016.7
20260510144530 12 352 3.2 14.5 0.00 0.00 0.00 61 1016.9
20260510143034 13 5 3.2 11.3 0.00 0.00 0.00 61 1017.2
20260510141523 13 9 4.8 12.9 0.00 0.00 0.00 62 1017.4
20260510140026 12 52 4.8 11.3 0.00 0.00 0.00 64 1017.4
20260510134528 12 182 4.8 14.5 0.00 0.00 0.00 65 1017.5
20260510133026 12 313 4.8 14.5 0.00 0.00 0.00 64 1017.6
20260510131529 12 347 4.8 12.9 0.00 0.00 0.00 64 1017.6
20260510130004 12 46 4.8 16.1 0.00 0.00 0.00 65 1017.7
20260510124506 12 49 4.8 16.1 0.00 0.00 0.00 65 1017.9
20260510123010 13 10 4.8 9.7 0.00 0.00 0.00 64 1017.8
20260510121519 13 341 4.8 16.1 0.00 0.00 0.00 65 1018.0
20260510120008 13 5 4.8 12.9 0.00 0.00 0.00 65 1018.0
20260510114508 13 19 4.8 14.5 0.00 0.00 0.00 65 1018.1
20260510113011 13 332 4.8 22.5 0.00 0.00 0.00 62 1018.2
20260510111516 14 360 6.4 19.3 0.00 0.00 0.00 61 1018.3
20260510110026 13 76 6.4 20.9 0.00 0.00 0.00 61 1018.4
20260510104504 14 352 3.2 22.5 0.00 0.00 0.00 60 1018.4
20260510103007 14 40 8.0 17.7 0.00 0.00 0.00 62 1018.4
20260510101510 13 37 6.4 19.3 0.00 0.00 0.00 60 1018.5
20260510100030 13 28 4.8 19.3 0.00 0.00 0.00 64 1018.5
20260510094531 13 22 4.8 16.1 0.00 0.00 0.00 62 1018.7
20260510093004 13 23 4.8 19.3 0.00 0.00 0.00 64 1018.7
20260510091510 12 44 4.8 19.3 0.00 0.00 0.00 66 1018.8
20260510090015 12 92 3.2 20.9 0.00 0.00 0.00 67 1018.8
20260510084523 11 15 4.8 19.3 0.00 0.00 0.00 68 1019.0
20260510083029 12 193 4.8 12.9 0.00 0.00 0.00 68 1019.1
20260510081508 11 5 6.4 20.9 0.00 0.00 0.00 69 1018.9
20260510080023 11 158 4.8 16.1 0.00 0.00 0.00 70 1019.1
20260510074519 11 5 3.2 17.7 0.00 0.00 0.00 71 1018.9
20260510073022 10 20 4.8 16.1 0.00 0.00 0.00 72 1018.8
20260510071524 10 360 4.8 19.3 0.00 0.00 0.00 73 1018.8
20260510070012 10 39 4.8 17.7 0.00 0.00 0.00 74 1018.7
20260510064518 10 36 4.8 19.3 0.00 0.00 0.00 74 1018.6
20260510063020 10 22 4.8 16.1 0.00 0.00 0.00 74 1018.5
20260510061522 9 34 4.8 16.1 0.00 0.00 0.00 77 1018.6
20260510060024 8 61 4.8 24.1 0.00 0.00 0.00 79 1018.7
20260510054516 8 309 4.8 14.5 0.00 0.00 0.00 80 1018.7
20260510053019 8 56 1.6 16.1 0.00 0.00 0.00 80 1018.7
20260510051522 7 19 1.6 9.7 0.00 0.00 0.00 81 1018.6
20260510050026 7 22 4.8 14.5 0.00 0.00 0.00 80 1018.5
20260510044532 7 320 1.6 14.5 0.00 0.00 0.00 81 1018.5
20260510043028 7 352 3.2 11.3 0.00 0.00 0.00 81 1018.5
20260510041520 7 23 3.2 14.5 0.00 0.00 0.00 80 1018.5
20260510040010 8 360 3.2 16.1 0.00 0.00 0.00 80 1018.6
20260510034508 8 9 3.2 12.9 0.00 0.00 0.00 80 1018.8
20260510033014 8 48 1.6 9.7 0.00 0.00 0.00 80 1018.9
20260510031518 8 22 3.2 14.5 0.00 0.00 0.00 79 1018.8
20260510030023 8 13 3.2 19.3 0.00 0.00 0.00 78 1018.7
20260510024506 8 15 4.8 14.5 0.00 0.00 0.00 78 1018.6
20260510023012 8 26 6.4 17.7 0.00 0.00 0.00 77 1018.6
20260510021518 8 24 4.8 16.1 0.00 0.00 0.00 74 1018.6
20260510020022 8 11 6.4 19.3 0.00 0.00 0.00 73 1018.6
20260510014523 8 292 4.8 16.1 0.00 0.00 0.00 71 1018.7
20260510013008 8 25 3.2 14.5 0.00 0.00 0.00 70 1018.8
20260510011532 9 112 4.8 16.1 0.00 0.00 0.00 70 1018.9
20260510010016 9 42 3.2 16.1 0.00 0.00 0.00 69 1018.7
20260510004523 9 352 3.2 14.5 0.00 0.00 0.00 67 1018.8
20260510003027 9 22 3.2 8.0 0.00 0.00 0.00 65 1018.8
20260510001510 10 5 3.2 11.3 0.00 0.00 0.00 62 1018.9
20260510000017 10 352 4.8 17.7 0.00 0.00 0.00 60 1018.9
20260509234518 10 25 4.8 14.5 0.00 0.00 0.00 59 1018.7
20260509233024 11 12 4.8 20.9 0.00 0.00 0.00 58 1018.6
20260509231528 11 5 4.8 12.9 0.00 0.00 0.00 60 1018.6
20260509230012 11 11 4.8 12.9 0.00 0.00 0.00 61 1018.3
20260509224519 11 352 3.2 8.0 0.00 0.00 0.00 61 1018.2
20260509223023 11 351 4.8 12.9 0.00 0.00 0.00 61 1018.3
20260509221523 11 37 4.8 12.9 0.00 0.00 0.00 62 1018.4
20260509220025 12 360 3.2 6.4 0.00 0.00 0.00 62 1018.4
20260509214520 11 5 1.6 4.8 0.00 0.00 0.00 64 1018.3
20260509213018 12 15 1.6 4.8 0.00 0.00 0.00 61 1018.1
20260509211524 12 19 3.2 6.4 0.00 0.00 0.00 60 1017.8
20260509210031 13 17 3.2 4.8 0.00 0.00 0.00 58 1017.9
20260509204535 13 24 3.2 6.4 0.00 0.00 0.00 56 1017.7
20260509203017 14 30 3.2 8.0 0.00 0.00 0.00 54 1017.6
20260509201523 15 15 3.2 6.4 0.00 0.00 0.00 53 1017.3
20260509200026 15 19 3.2 9.7 0.00 0.00 0.00 53 1017.2
20260509194528 15 34 1.6 8.0 0.00 0.00 0.00 52 1017.2
20260509193028 16 26 1.6 9.7 0.00 0.00 0.00 52 1017.1
20260509191525 16 14 3.2 11.3 0.00 0.00 0.00 50 1017.0
20260509190006 17 24 1.6 8.0 0.00 0.00 0.00 49 1016.8
20260509184507 18 352 3.2 8.0 0.00 0.00 0.00 48 1016.9
20260509183014 18 5 1.6 6.4 0.00 0.00 0.00 47 1016.9
20260509181503 19 360 3.2 9.7 0.00 0.00 0.00 45 1016.8
20260509180004 20 342 3.2 12.9 0.00 0.00 0.00 45 1016.7
20260509174506 20 28 3.2 11.3 0.00 0.00 0.00 44 1016.6
20260509173009 20 55 3.2 12.9 0.00 0.00 0.00 43 1016.8
20260509171517 20 338 3.2 12.9 0.00 0.00 0.00 43 1016.6
20260509170003 22 10 3.2 8.0 0.00 0.00 0.00 41 1016.8
20260509164504 22 21 6.4 19.3 0.00 0.00 0.00 39 1016.8